Weather Roundup
Issued by NWS

Home | Current Version | Previous Version | Graphics & Text | Print | Product List | Glossary Off
Versions: 1 2 3 4 5 6 7 8 9 10 11 12 13 14 15 16 17 18 19 20 21 22 23 24 25 26 27 28 29 30 31 32 33 34 35 36 37 38 39 40 41 42 43 44 45 46 47 48 49 50

000
NZUS93 KARX 061859
HRRWXR

CURRENT HOURLY OBSERVATIONS ACROSS
MUCH OF THE UPPER MISSISSIPPI VALLEY
NATIONAL WEATHER SERVICE LA CROSSE WI
100 PM CST FRI MAR 06 2015


...SOUTHEAST MINNESOTA...


CITY           SKY/WX    TMP DP  RH WIND       PRES   REMARKS
ROCHESTER      NOT AVBL
ROCHESTER/MAYO NOT AVBL
WINONA         SUNNY     30  16  55 SW8       30.11F WCI  23
AUSTIN         SUNNY     30  19  64 SW12      30.07F WCI  21
ALBERT LEA     NOT AVBL
DODGE CENTER   NOT AVBL
PRESTON        SUNNY     28  17  63 SW8       30.08F WCI  20
OWATONNA       SUNNY     36  21  55 W14       30.06S WCI  27
FARIBAULT      SUNNY     36  19  51 W9        30.06F WCI  29
$$

...ELSEWHERE IN MINNESOTA...


CITY           SKY/WX    TMP DP  RH WIND       PRES   REMARKS
MINNEAPOLIS    NOT AVBL
INTNL FALLS    NOT AVBL
DULUTH         NOT AVBL
RED WING       NOT AVBL
REDWOOD FALLS  NOT AVBL
MANKATO        SUNNY     37  21  52 W14G20    30.07S WCI  29
FAIRMONT       SUNNY     43  23  45 W12       30.07F
$$

...SOUTHWEST WISCONSIN...


CITY           SKY/WX    TMP DP  RH WIND       PRES   REMARKS
LA CROSSE      NOT AVBL
PRAIRIE DU CHI SUNNY     28  13  53 SW10      30.17F WCI  19
BOSCOBEL       NOT AVBL
LONE ROCK      NOT AVBL
PLATTEVILLE    SUNNY     25  14  64 S18       30.17F WCI  11
FORT MC COY    NOT AVBL
VIROQUA        FAIR      27  14  58 SW15      30.09F WCI  15
WIS DELLS      NOT AVBL
$$

...ELSEWHERE IN WISCONSIN...


CITY           SKY/WX    TMP DP  RH WIND       PRES   REMARKS
MILWAUKEE      NOT AVBL
MADISON        NOT AVBL
GREEN BAY      NOT AVBL
EAU CLAIRE     NOT AVBL
BLACK RVR FLS  CLOUDY    28  10  46 SW9G16    30.08F WCI  20
MEDFORD        MOSUNNY   22   8  56 S10       29.99F WCI  11
WAUSAU         NOT AVBL
WIS RAPIDS     NOT AVBL
MARSHFIELD     NOT AVBL
RICE LAKE      SUNNY     26  11  53 W7        30.03F WCI  19
$$

...NORTHEAST IOWA...


CITY           SKY/WX    TMP DP  RH WIND       PRES   REMARKS
DECORAH        SUNNY     27  16  63 SW13G20   30.11F WCI  16
MASON CITY     NOT AVBL
CHARLES CITY   SUNNY     28  21  74 SW14      30.12F WCI  17
OELWEIN        SUNNY     28  19  69 SW15      30.15F WCI  17
$$

...ELSEWHERE IN IOWA...


CITY           SKY/WX    TMP DP  RH WIND       PRES   REMARKS
DES MOINES     NOT AVBL
IOWA CITY      NOT AVBL
FORT DODGE     SUNNY     43  27  52 SW9       30.13F
$$

...NORTHERN ILLINOIS...


CITY           SKY/WX    TMP DP  RH WIND       PRES   REMARKS
CHICAGO-OHARE  NOT AVBL
CHICAGO-MIDWAY NOT AVBL
MOLINE         NOT AVBL
ROCKFORD       NOT AVBL
PEORIA         NOT AVBL
$$

NOTE: "FAIR" INDICATES FEW OR NO CLOUDS BELOW 12,000 FEET WITH NO
SIGNIFICANT WEATHER AND/OR OBSTRUCTIONS TO VISIBILITY. WIND
SPEEDS ARE IN MILES-PER-HOUR.



USA.gov is the U.S. government's official web portal to all federal, state and local government web resources and services.